Location: Newark
(53.4333°N, 36.0000°E)
Time: 20:42:28
(UTC+00:00)

ISS - Pass Details

Date: 24 September 2019
Orbit: 411 x 421 km, 51.6° (Epoch: 13 October)

Event Time Altitude Azimuth Distance (km) Brightness Sun altitude
Rises 17:49:51 0° 256° (WSW) 2,342 0.7 -20.7°
Reaches altitude 10° 17:51:57 10° 252° (WSW) 1,481 -0.4 -21.0°
Enters shadow 17:54:19 41° 232° (SW) 616 -2.8 -21.3°
